TimeAKST,TemperatureF,Dew PointF,Humidity,Sea Level PressureIn,VisibilityMPH,Wind Direction,Wind SpeedMPH,Gust SpeedMPH,PrecipitationIn,Events,Conditions,WindDirDegrees,DateUTC
12:23 AM,37.4,30.2,75,29.78,10.0,East,13.8,20.7,0.00,,Mostly Cloudy,90,2013-01-03 09:23:00
12:39 AM,37.4,32.0,81,29.78,9.0,ESE,11.5,21.9,0.00,Rain,Light Rain,110,2013-01-03 09:39:00
12:53 AM,37.0,32.0,82,29.78,10.0,East,8.1,-,0.00,Rain,Light Rain,90,2013-01-03 09:53:00
1:45 AM,35.6,32.0,87,29.78,10.0,East,5.8,-,0.02,Rain,Light Rain,80,2013-01-03 10:45:00
1:53 AM,36.0,32.0,86,29.78,10.0,East,6.9,-,0.02,,Overcast,90,2013-01-03 10:53:00
3:53 AM,37.9,30.9,76,29.77,10.0,East,8.1,20.7,0.01,,Overcast,80,2013-01-03 12:53:00
4:53 AM,39.0,30.0,70,29.77,10.0,ESE,16.1,26.5,N/A,,Overcast,110,2013-01-03 13:53:00
5:53 AM,37.0,30.9,79,29.77,10.0,ESE,13.8,24.2,0.00,Rain,Light Rain,110,2013-01-03 14:53:00
6:13 AM,35.6,30.2,81,29.76,6.0,East,11.5,27.6,0.01,Rain,Light Rain,100,2013-01-03 15:13:00
6:30 AM,35.6,32.0,87,29.76,10.0,East,5.8,-,0.01,Rain,Light Rain,100,2013-01-03 15:30:00
6:53 AM,37.0,30.9,79,29.76,10.0,ESE,13.8,23.0,0.01,Rain,Light Rain,120,2013-01-03 15:53:00
7:53 AM,37.0,30.9,79,29.76,10.0,East,10.4,16.1,0.00,,Overcast,90,2013-01-03 16:53:00
8:45 AM,37.4,30.2,75,29.76,10.0,ESE,15.0,24.2,0.00,Rain,Light Rain,110,2013-01-03 17:45:00
8:53 AM,37.0,30.9,79,29.76,10.0,East,18.4,25.3,0.01,Rain,Light Rain,100,2013-01-03 17:53:00
9:53 AM,36.0,32.0,86,29.76,10.0,East,5.8,-,0.01,,Overcast,90,2013-01-03 18:53:00
10:41 AM,35.6,32.0,87,29.77,10.0,East,4.6,-,0.00,Rain,Light Rain,100,2013-01-03 19:41:00
10:53 AM,37.0,32.0,82,29.77,10.0,East,6.9,-,0.01,Rain,Light Rain,100,2013-01-03 19:53:00
11:10 AM,37.4,30.2,75,29.77,10.0,East,10.4,21.9,0.00,Rain,Light Rain,100,2013-01-03 20:10:00
11:34 AM,37.4,30.2,75,29.76,8.0,East,10.4,17.3,0.00,Rain,Light Rain,100,2013-01-03 20:34:00
11:53 AM,37.9,30.9,76,29.75,10.0,Variable,5.8,-,0.00,,Overcast,0,2013-01-03 20:53:00
12:53 PM,39.0,28.9,67,29.74,10.0,ESE,8.1,-,N/A,,Overcast,110,2013-01-03 21:53:00
1:53 PM,37.9,30.0,73,29.73,10.0,East,8.1,19.6,0.00,,Overcast,100,2013-01-03 22:53:00
2:05 PM,39.2,30.2,70,29.73,10.0,ESE,9.2,16.1,N/A,,Overcast,110,2013-01-03 23:05:00
2:53 PM,37.9,30.0,73,29.72,10.0,East,6.9,16.1,0.00,Rain,Light Rain,90,2013-01-03 23:53:00
3:53 PM,37.9,30.0,73,29.70,10.0,East,11.5,18.4,0.00,,Overcast,100,2013-01-04 00:53:00
4:53 PM,39.0,28.9,67,29.70,10.0,ESE,11.5,20.7,0.00,Rain,Light Rain,110,2013-01-04 01:53:00
5:53 PM,39.0,28.9,67,29.70,10.0,East,10.4,20.7,0.00,,Overcast,100,2013-01-04 02:53:00
6:53 PM,36.0,30.9,82,29.70,10.0,East,10.4,16.1,0.00,Rain,Light Rain,80,2013-01-04 03:53:00
7:53 PM,37.0,30.0,76,29.70,10.0,East,11.5,20.7,0.00,Rain,Light Rain,100,2013-01-04 04:53:00
8:53 PM,37.0,30.0,76,29.70,10.0,East,4.6,-,0.00,,Overcast,100,2013-01-04 05:53:00
9:53 PM,37.9,28.9,70,29.70,10.0,East,5.8,-,0.00,,Overcast,90,2013-01-04 06:53:00
10:41 PM,37.4,30.2,75,29.70,10.0,East,5.8,-,0.00,Rain,Light Rain,80,2013-01-04 07:41:00
10:53 PM,37.0,30.0,76,29.70,10.0,East,5.8,-,0.00,,Overcast,90,2013-01-04 07:53:00
11:42 PM,35.6,30.2,81,29.71,10.0,SE,5.8,-,0.00,Rain,Light Rain,130,2013-01-04 08:42:00
11:53 PM,36.0,30.0,79,29.71,10.0,ESE,5.8,-,0.00,,Overcast,120,2013-01-04 08:53:00